Theta_e
299 300 301 301 301 302 303 302 304 307 311 315 319 323 325 327 326 326 326 325 325 325 325 324 324 323 322 322 322 321 321 320
300 301 301 301 301 301 301 301 302 303 306 310 313 317 322 324 326 326 326 326 324 324 324 324 323 323 322 322 322 321 320 321
301 300 298 298 300 300 300 300 302 302 304 306 310 313 315 319 323 325 325 324 324 325 324 323 323 323 321 321 321 321 319 320
298 296 295 298 298 299 300 300 300 301 303 305 308 311 313 315 318 319 322 323 323 324 324 324 323 322 322 321 321 320 320 319
294 294 295 296 297 299 300 301 300 299 300 302 304 307 311 314 316 318 319 320 321 322 324 323 323 322 322 321 321 319 318 318
294 295 296 297 298 299 299 300 300 300 298 300 302 304 307 309 312 313 313 318 319 320 321 322 321 320 319 318 318 317 316 314
294 294 294 294 296 297 298 298 298 298 297 298 298 298 300 303 304 303 304 310 313 312 313 314 315 307 305 312 315 313 313 311
292 292 292 293 294 294 295 295 295 294 294 294 292 292 293 293 295 297 300 302 305 307 307 308 312 301 302 300 314 311 309 305
290 289 290 290 292 292 291 291 292 291 292 291 292 291 291 290 291 295 298 298 301 301 303 304 301 298 298 295 306 303 302 300
287 287 286 288 290 288 287 288 288 289 289 290 290 290 290 290 290 291 294 296 297 294 296 295 297 295 296 296 294 294 294 296
284 284 285 286 285 284 284 284 285 287 287 288 289 289 289 289 290 291 291 292 294 293 292 292 294 293 294 295 292 290 290 289
280 281 283 282 282 281 282 281 284 285 285 284 286 287 288 288 289 289 289 290 291 291 291 290 290 291 294 294 292 293 289 289
278 278 278 279 279 278 279 281 282 279 278 280 284 286 287 287 287 288 288 288 288 288 290 288 288 289 293 294 294 292 290 288
275 274 276 276 276 277 278 278 275 274 275 279 283 285 286 287 287 287 288 288 288 288 289 291 287 288 291 293 292 291 288 287
272 271 271 273 275 274 274 273 271 271 275 279 279 281 285 286 287 287 287 288 288 288 288 289 290 288 288 289 290 288 287 287
269 269 269 270 270 270 270 269 269 269 270 273 277 280 281 284 286 287 288 289 288 288 289 288 289 288 290 289 288 288 287 286
266 266 266 267 267 266 267 266 265 266 268 268 269 272 276 280 284 289 289 290 291 291 291 290 291 291 290 290 290 289 288 286
264 265 264 264 264 265 265 265 264 264 266 267 268 269 272 277 281 283 287 289 289 290 291 291 291 290 290 290 289 289 288 286
263 262 262 263 263 264 265 265 264 265 266 266 267 269 272 277 282 284 285 285 286 288 289 290 291 290 290 290 289 286 287 286
261 261 262 262 262 265 265 265 264 265 267 268 269 270 274 278 281 284 285 285 286 286 286 287 290 290 290 290 286 285 284 284
Wind_Speed
4 4 4 5 7 7 6 6 7 8 7 7 8 11 13 13 15 14 14 14 13 13 16 17 17 16 16 14 15 14 13 11
3 5 4 3 4 7 7 7 7 6 6 7 7 8 9 13 14 15 14 15 13 14 15 16 17 17 16 17 16 16 15 15
5 6 6 7 7 6 7 7 7 7 7 7 7 7 7 10 13 13 14 12 15 16 16 17 18 18 18 19 17 17 17 17
6 6 7 8 7 8 8 8 8 7 7 7 7 7 9 9 9 8 11 12 12 14 16 17 16 16 16 17 16 16 17 15
5 8 8 8 8 10 11 9 9 9 8 8 8 8 9 10 10 11 11 11 12 14 15 15 16 16 15 16 16 14 14 15
11 10 11 13 12 12 12 11 12 13 10 10 9 9 9 10 10 9 8 12 11 12 12 13 13 11 14 13 14 13 14 14
13 13 13 13 14 14 14 14 14 14 14 13 11 11 10 10 11 8 8 10 9 9 9 10 9 12 15 14 12 14 15 13
12 12 13 14 14 14 15 15 14 14 14 11 11 12 13 9 10 13 12 9 9 10 7 11 11 12 16 17 12 10 10 8
13 14 14 14 13 14 14 14 13 13 13 14 14 13 14 10 10 12 11 13 12 10 10 9 6 9 11 12 10 8 9 10
11 14 17 15 15 16 15 14 14 14 13 15 16 17 15 15 14 11 9 12 14 7 9 9 9 12 13 10 6 6 7 7
13 14 13 15 18 17 15 15 16 16 17 16 16 16 17 16 15 12 8 11 11 11 10 9 11 13 15 14 6 7 5 5
14 14 14 17 16 18 16 16 16 17 18 19 18 17 16 16 14 12 11 10 11 15 9 9 9 9 16 17 9 8 6 7
16 15 15 15 15 19 17 17 17 20 21 20 18 15 13 15 15 14 12 11 11 10 11 7 7 10 16 18 17 11 9 9
16 19 14 15 15 18 19 18 22 21 21 20 21 19 16 17 16 13 12 10 10 9 9 11 6 7 16 18 17 14 7 5
17 19 20 15 15 17 18 20 20 21 20 18 19 19 18 14 12 12 11 11 10 10 10 10 10 8 7 9 11 13 8 12
16 17 20 20 18 17 18 18 19 19 18 17 14 16 17 15 14 12 14 12 12 12 10 9 11 10 14 13 10 10 11 11
16 17 18 18 18 18 16 16 17 18 15 14 14 14 13 14 15 19 23 25 26 27 21 11 18 13 20 22 21 22 26 9
17 17 17 16 16 16 16 16 17 17 17 14 15 14 14 14 14 15 12 19 23 26 26 26 20 18 22 22 23 26 26 11
15 15 15 16 18 17 17 17 17 18 22 15 13 13 15 14 15 13 13 12 11 13 20 24 24 23 25 26 24 14 19 12
13 12 14 17 18 19 18 18 18 16 14 14 13 13 16 15 16 13 13 12 12 9 8 13 21 24 26 28 14 15 15 13
Wind_Direction
302 305 327 310 296 304 296 289 287 288 271 254 236 230 230 229 227 225 226 223 221 212 211 214 214 212 211 218 224 220 220 219
296 310 326 306 301 291 292 297 301 300 288 280 263 245 231 229 227 224 226 224 216 212 211 212 211 210 210 217 221 220 221 219
315 333 339 345 346 333 306 298 287 283 287 282 279 272 253 245 241 232 227 223 221 220 215 213 211 209 208 214 216 219 218 220
344 342 345 351 350 341 331 314 301 298 287 285 281 280 275 262 248 232 230 231 225 225 224 220 215 213 215 218 219 221 222 218
360 2 10 353 350 350 338 329 321 313 299 289 285 282 280 277 266 254 243 237 229 225 225 221 215 215 214 215 219 220 220 217
37 24 8 1 353 349 342 340 342 338 318 297 293 291 289 285 277 269 257 249 242 236 230 223 216 212 209 210 213 215 219 218
18 14 4 353 347 343 345 347 339 334 327 319 315 304 293 287 286 282 272 263 250 236 227 222 221 214 205 205 213 216 220 220
8 356 348 346 341 342 336 332 331 331 328 323 318 313 307 293 298 288 279 276 261 250 230 238 238 205 212 208 222 218 218 206
352 343 342 334 336 334 332 326 324 322 326 330 330 322 314 298 280 280 277 272 263 254 242 238 227 202 202 198 216 201 195 192
338 334 324 327 335 333 327 326 326 327 327 326 324 320 316 306 295 277 272 274 265 243 236 230 237 206 203 188 197 205 201 192
333 324 322 334 334 328 326 329 326 327 323 321 314 309 308 304 298 285 261 266 272 257 237 234 236 203 200 191 186 196 186 183
330 325 331 332 326 322 323 323 318 317 320 315 308 303 301 300 298 286 271 268 262 263 247 226 218 211 202 195 192 198 183 190
326 327 326 324 328 316 315 317 325 322 312 310 306 303 301 300 302 292 276 266 265 260 260 237 214 206 209 204 204 185 186 193
325 314 320 327 317 313 318 330 320 314 309 305 305 306 302 300 297 294 280 265 260 251 252 255 222 221 207 199 196 197 189 157
320 316 313 318 321 312 320 316 311 305 303 309 309 301 300 295 289 282 275 268 264 253 248 247 241 221 203 200 194 185 168 156
317 314 313 320 318 320 314 313 310 310 306 300 300 305 303 291 285 271 264 258 268 261 257 247 242 227 211 198 190 182 171 144
320 315 313 312 314 311 313 315 308 304 307 303 300 297 292 288 286 265 259 257 253 255 252 254 250 220 203 201 189 178 163 164
321 317 314 311 309 312 312 310 305 300 300 298 298 294 292 288 283 287 278 252 252 254 250 246 242 216 196 195 188 179 171 192
321 313 313 319 317 317 316 311 302 300 298 293 291 290 290 286 286 281 280 281 276 246 244 244 232 208 200 193 184 187 190 193
318 321 325 328 322 327 324 320 313 308 302 298 293 288 284 288 286 277 278 275 275 273 246 240 221 209 204 195 195 198 196 189